Cloud_Cover
5 5 4 5 54 88 71 19 29 16 8 5 29 5 59 66 63 5 39 70 79 70 100 100 100 100 100 95 14 90 100 85 100 100 100 100 100 100 100 99 100 100 98
98 60 5 5 21 57 100 93 100 100 100 99 5 5 5 7 14 5 6 80 97 61 100 100 100 100 100 88 39 39 85 82 78 100 100 100 100 100 100 100 100 100 100
63 65 56 28 7 6 55 58 20 69 100 92 5 5 5 6 5 5 5 32 72 69 74 87 94 99 99 100 59 35 8 100 100 37 98 100 100 100 100 100 100 100 100
100 100 82 74 66 39 60 100 5 3 4 3 5 5 5 5 3 4 5 5 8 5 54 44 99 74 26 24 22 5 45 92 75 85 100 100 96 100 100 100 100 100 100
7 100 66 100 42 42 64 7 70 62 6 5 5 5 2 0 15 5 5 8 3 5 74 20 3 16 5 5 10 71 58 52 100 100 100 98 100 100 100 100 100 100 100
28 91 100 100 100 100 74 36 5 96 100 96 16 7 86 26 34 97 100 82 83 6 2 100 14 7 5 5 6 34 13 74 100 100 100 100 100 100 100 100 100 100 100
1 3 0 2 21 4 24 5 5 20 14 77 13 20 74 60 30 70 85 100 100 31 10 46 100 100 100 82 71 90 75 51 92 100 98 94 100 100 100 100 100 100 100
5 0 0 0 0 0 2 2 1 1 0 0 0 0 8 58 100 100 98 92 84 37 35 33 61 61 100 100 100 58 56 99 100 69 99 100 100 100 100 100 100 100 100
1 0 0 0 1 0 0 6 62 5 7 9 41 76 39 42 99 100 77 91 98 8 5 5 20 30 10 44 100 100 70 55 100 100 100 100 100 100 100 100 100 100 100
84 3 5 18 16 5 2 5 100 58 56 43 24 54 27 11 100 100 86 100 99 100 99 99 88 83 62 63 99 98 100 96 100 100 100 100 100 100 100 100 100 100 100
4 32 89 100 5 100 77 40 47 35 15 52 26 84 86 21 6 100 100 100 99 91 49 80 100 79 100 100 100 100 100 18 68 100 100 91 97 100 100 100 100 100 100
0 7 100 100 61 100 46 98 78 100 100 98 6 12 5 4 18 77 100 100 89 100 100 90 41 99 100 100 100 100 100 100 99 91 100 100 100 100 100 100 100 100 100
84 99 100 100 100 100 40 85 100 100 99 33 1 5 1 0 0 1 32 56 90 100 100 86 96 97 97 100 100 100 100 100 100 100 100 98 100 50 98 100 100 100 100
100 100 100 100 100 88 99 99 80 17 100 80 5 5 20 3 4 46 54 88 93 100 100 100 100 100 97 70 100 97 100 100 100 100 100 76 100 86 98 100 100 100 100
100 100 100 100 100 100 100 100 40 92 100 73 48 17 51 15 14 100 100 100 100 100 100 100 100 100 100 100 100 95 100 100 100 100 100 100 80 100 100 100 100 100 100
100 100 100 100 100 100 100 100 100 100 100 98 100 54 16 79 100 100 100 100 100 100 100 100 100 100 100 100 100 100 100 100 100 100 100 100 100 100 100 100 100 100 100
100 100 100 100 100 100 100 100 100 100 100 100 100 100 100 97 100 100 100 100 100 97 100 100 100 100 100 100 100 100 100 100 100 100 100 100 100 100 100 100 100 100 100
100 100 100 100 100 100 100 100 100 100 100 100 100 99 100 100 100 100 100 86 12 47 99 100 100 100 100 100 100 100 100 100 100 100 100 100 100 100 100 100 100 100 100
100 100 100 100 100 100 100 100 100 100 100 100 60 100 70 100 100 100 100 4 17 14 56 100 100 100 100 100 100 100 100 100 100 100 100 100 100 100 100 100 100 100 100
100 100 100 100 100 100 100 100 100 100 100 96 87 99 100 33 4 2 4 0 0 1 26 44 92 86 94 83 100 100 100 100 100 100 100 100 100 100 100 100 100 100 100
100 100 100 100 100 100 100 100 100 100 100 22 99 95 100 5 5 0 5 4 5 0 0 0 17 31 49 53 83 40 56 95 100 100 100 100 100 100 100 100 100 100 100
100 100 100 100 100 100 100 100 100 97 22 75 95 80 78 16 5 38 5 1 13 0 0 0 2 5 0 16 33 27 37 48 59 57 33 71 81 67 91 100 100 100 100
100 100 100 100 100 100 100 100 100 56 38 13 85 25 5 7 8 9 45 20 5 0 0 0 3 16 5 3 0 0 0 1 16 10 15 15 11 13 15 12 16 40 64
100 100 100 100 100 100 100 100 88 100 30 7 46 5 13 19 72 100 79 5 3 0 0 0 2 0 5 5 5 2 0 0 0 0 4 5 5 17 5 3 1 0 1
100 100 100 100 90 84 6 5 7 34 99 4 5 4 48 83 99 84 81 45 3 0 1 6 4 5 5 2 5 5 10 100 28 9 3 3 5 1 0 0 0 0 0
100 100 100 100 100 85 100 88 60 70 7 5 5 75 61 12 52 18 51 52 45 8 5 6 15 58 73 59 29 86 100 100 82 100 13 4 2 1 4 4 3 0 0